星链-31613 (STARLINK-31613 )

导读

STARLINK-31613是美国太空探索技术公司(SpaceX)星链(Starlink)星座的一颗卫星,于2024年4月7日在美国发射升空。它属于星链互联网卫星星座的组网卫星,主要用于为全球范围提供高速低延迟的宽带互联网服务,补充扩展星链星座的覆盖范围与服务容量,推进星链星座完成全球组网部署。

Basic Information
目录编号:
59431
目录名称:
STARLINK-31613
国际标识:
2024-065L
轨道中心:
EARTH
卫星名称:
星链-31613
卫星全名:
星链-31613 (STARLINK-31613 )
卫星状态:
在轨 (已飞行888 天)
发射日期:
2024-04-07 UTC
国别 :
美国 (US)
星等 :
--
This satellite is enrolled in the Space Conjunction Data Service (SCDS) and the current flight risk assessment level is: No High Risk
Orbit Information
数据来源 国际轨道数据
星历时间: 2026-09-11T17:20:40+0800
17小时前
查看轨道信息
半长轴: 6840.879km
偏心率: 0.0001498
轨道倾角: 53.158°
近地点辐角 81.279°
升交点赤经 136.090°
平近点角 278.838°
近地点: 461.717km
远地点: 463.767km
周期: 93.849分钟
每日圈数: 15.343871
Detailed Information
固有亮度:
5
最大亮度:
1.5
卫星平台:
Starlink v2.0 mini
覆盖范围:
全球
运营商:
太空探索技术公司
运营商所在国:
美国
制造商(研发单位):
太空探索技术公司
制造商所在国:
美国
使用方式:
暂无
Satellite Introduction
星链(Starlink)计划是由太空探索技术公司(SpaceX)提出的一个巨型低轨卫星互联网星座项目,计划在2019年至2024年间在太空搭建由约1.2万颗卫星组成的“星链”网络,其中1584颗将部署在地球上空550千米处的近地轨道,并从2020年开始工作。该卫星仍在工作。
2D Orbit Map
3D Orbit Map
Orbit Altitude Analysis Chart
Orbit Inclination Analysis Chart
Orbit Comprehensive Analysis Chart
View Comprehensive Chart
Conjunction Data List
Event ID Objects TCA Miss Dist (km) Collision Risk Probability Collision Risk Index (CRI) Action
CDM_260912-055105-943106-268023
2026-09-12T
05:51:24+0000
1.104 km
极远距离
1.896277E-5 中风险 0.61
CDM_260913-171405-943106-624121
2026-09-13T
17:14:08+0000
0.668 km
远距离
1.393966E-5 中风险 0.58
CDM_260913-193405-943106-624121
2026-09-13T
19:34:50+0000
1.196 km
极远距离
1.993243E-6 低风险 0.41
CDM_260913-180105-943106-624121
2026-09-13T
18:01:02+0000
1.347 km
极远距离
1.380715E-6 低风险 0.38
CDM_260913-102205-186305-943122
2026-09-13T
10:22:17+0000
2.897 km
极远距离
1.1192E-6 低风险 0.36
CDM_260913-184705-943106-624121
2026-09-13T
18:47:56+0000
2.066 km
极远距离
4.757743E-7 极低风险 0.29
CDM_260913-154005-943106-624121
2026-09-13T
15:40:21+0000
2.986 km
极远距离
2.864409E-7 极低风险 0.24
Miss Distance Evolution Trend with All Objects
Collision Probability Evolution Trend with All Objects